Regional Weather Roundup
Issued by NWS

Home | Current Version | Previous Version | Text Only | Print | Product List | Glossary Off
Versions: 1 2 3 4 5 6 7 8 9 10 11 12 13 14 15 16 17 18 19 20 21 22 23 24 25 26 27

000
ASUS45 KPSR 240610
RWRAZ

ARIZONA HOURLY REGIONAL WEATHER ROUNDUP
NATIONAL WEATHER SERVICE PHOENIX AZ
1100 PM MST MON APR 23 2018

NOTE: FAIR INDICATES FEW OR NO CLOUDS BELOW 12,000 FEET WITH NO
SIGNIFICANT WEATHER AND/OR OBSTRUCTIONS TO VISIBILITY.

AZZ001>003-036-240700-
NORTHWEST ARIZONA

CITY           SKY/WX    TMP DP  RH WIND       PRES   REMARKS
BULLHEAD CITY  PTCLDY    84  21  10 NW5       29.84S
KINGMAN        PTCLDY    68  21  16 S9        30.02S
6HR MIN TEMP:  68; 6HR MAX TEMP:  86;

$$

AZZ004>008-015-016-018-240700-
NORTH CENTRAL ARIZONA

CITY           SKY/WX    TMP DP  RH WIND       PRES   REMARKS
GRAND CANYON   PTCLDY    39  14  36 CALM      30.21R
6HR MIN TEMP:  38; 6HR MAX TEMP:  74;

WILLIAMS       CLEAR     55  14  19 CALM      30.20R
PRESCOTT       CLEAR     58  22  24 S10       30.13R
6HR MIN TEMP:  58; 6HR MAX TEMP:  78;

FLAGSTAFF      CLEAR     44  16  32 CALM      30.24R
6HR MIN TEMP:  44; 6HR MAX TEMP:  69;

PAYSON         PTCLDY    59  14  17 NW5       30.13S
PAGE           CLEAR     72  20  14 W3        30.02R
6HR MIN TEMP:  72; 6HR MAX TEMP:  85;

$$

AZZ009>014-017-240700-
NORTHEAST ARIZONA

CITY           SKY/WX    TMP DP  RH WIND       PRES   REMARKS
WINSLOW        CLEAR     63  18  17 SW12      30.09R
6HR MIN TEMP:  63; 6HR MAX TEMP:  84;

SAINT JOHNS    CLEAR     60  16  18 W14       30.13R
6HR MIN TEMP:  59; 6HR MAX TEMP:  79;

WINDOW ROCK    CLEAR     43   8  23 CALM      30.17S
6HR MIN TEMP:  42; 6HR MAX TEMP:  75;

SHOW LOW       CLEAR     54  14  20 S7        30.21S
$$

AZZ540-542>544-546-548-240700-
GREATER PHOENIX AREA

CITY           SKY/WX    TMP DP  RH WIND       PRES   REMARKS
PHOENIX        MOCLDY    81  28  14 SW3       29.88R
6HR MIN TEMP:  81; 6HR MAX TEMP:  94;

BUCKEYE        PTCLDY    72  18  13 N5        29.89S
LUKE AFB       PTCLDY    75  32  21 W6        29.87R
6HR MIN TEMP:  75; 6HR MAX TEMP:  94;

DEER VALLEY    PTCLDY    77  22  13 NE6       29.90R
6HR MIN TEMP:  73; 6HR MAX TEMP:  92;

SCOTTSDALE     PTCLDY    79  33  19 CALM      29.91S
6HR MIN TEMP:  79; 6HR MAX TEMP:  93;

MESA-GATEWAY   CLEAR     72  30  21 S5        29.92R
$$

AZZ539-553-240700-
SOUTHWEST MARICOPA COUNTY AND PINAL COUNTY

CITY           SKY/WX    TMP DP  RH WIND       PRES   REMARKS
CASA GRANDE    CLEAR     75  22  13 W9        29.92R
6HR MIN TEMP:  75; 6HR MAX TEMP:  92;

GILA BEND      FAIR      77  21  12 S6        29.88S
6HR MIN TEMP:  77; 6HR MAX TEMP:  95;

$$

AZZ503-504-507>509-240700-
SOUTHEAST ARIZONA

CITY           SKY/WX    TMP DP  RH WIND       PRES   REMARKS
TUCSON         CLEAR     74  22  14 W8        30.01R
6HR MIN TEMP:  71; 6HR MAX TEMP:  91;

DAVIS-MONTHAN  CLEAR     69  24  18 SW10      29.99R
6HR MIN TEMP:  69; 6HR MAX TEMP:  92;

NOGALES        CLEAR     62  20  19 E7        30.09R
6HR MIN TEMP:  62; 6HR MAX TEMP:  88;

SIERRA VISTA   CLEAR     66  13  12 W12       30.13R
6HR MIN TEMP:  61; 6HR MAX TEMP:  83;

DOUGLAS        CLEAR     62  17  17 S3        30.08R
6HR MIN TEMP:  62; 6HR MAX TEMP:  87;

SAFFORD        CLEAR     73  18  12 NW12      29.98R
6HR MIN TEMP:  72; 6HR MAX TEMP:  90;

$$

AZZ532-240700-
SOUTHWEST ARIZONA

CITY           SKY/WX    TMP DP  RH WIND       PRES   REMARKS
YUMA           PTCLDY    77  38  24 SE7       29.87R
6HR MIN TEMP:  76; 6HR MAX TEMP:  95;

$$

CAZ041-043-047-048-061-525>527-560>570-240700-
SOUTHERN CALIFORNIA

CITY           SKY/WX    TMP DP  RH WIND       PRES   REMARKS
DOWNTOWN L.A.  PTCLDY    56  53  90 CALM      30.01R
6HR MIN TEMP:  56; 6HR MAX TEMP:  67;

L.A. AIRPORT     N/A     55  53  93 VRB5      30.02S FOG
6HR MIN TEMP:  55; 6HR MAX TEMP:  60;

SAN DIEGO      MOCLDY    60  54  80 CALM      30.05R
6HR MIN TEMP:  60; 6HR MAX TEMP:  67;

BURBANK        CLEAR     59  54  83 SE6       30.00R
6HR MIN TEMP:  59; 6HR MAX TEMP:  77;

ONTARIO        MOCLDY    62  47  57 N5        30.01S
6HR MIN TEMP:  61; 6HR MAX TEMP:  84;

RIVERSIDE      MOCLDY    65  47  52 SW5       30.01S
6HR MIN TEMP:  64; 6HR MAX TEMP:  83;

PALM SPRINGS   PTCLDY    83  35  18 NW13      29.88S
6HR MIN TEMP:  83; 6HR MAX TEMP:  98;

EL CENTRO NAS  MOCLDY    81  29  15 SW13      29.87R
6HR MIN TEMP:  77; 6HR MAX TEMP:  96;

IMPERIAL       PTCLDY    76  39  26 W8        29.84S
6HR MIN TEMP:  76; 6HR MAX TEMP:  97;

BLYTHE         PTCLDY    84  29  13 SW10      29.86R
6HR MIN TEMP:  84; 6HR MAX TEMP:  97;

NEEDLES        PTCLDY    89  22   8 SW9       29.85S
6HR MIN TEMP:  84; 6HR MAX TEMP:  99;

$$

NVZ020-UTZ003-240700-
SOUTHERN NEVADA-UTAH

CITY           SKY/WX    TMP DP  RH WIND       PRES   REMARKS
LAS VEGAS      MOCLDY    81  23  11 SW7       29.90R
6HR MIN TEMP:  80; 6HR MAX TEMP:  93;

SALT LAKE CITY CLEAR     52  36  54 CALM      30.19R
6HR MIN TEMP:  51; 6HR MAX TEMP:  65;

$$

NMZ009-TXZ055-240700-
NEW MEXICO-WEST TEXAS

CITY           SKY/WX    TMP DP  RH WIND       PRES   REMARKS
ALBUQUERQUE    PTCLDY    67  24  19 S15       30.06S
6HR MIN TEMP:  65; 6HR MAX TEMP:  79;

EL PASO        PTCLDY    71  27  19 S3        30.02S
6HR MIN TEMP:  68; 6HR MAX TEMP:  87;

$$


........................KEY........................
SKY/WX - SKY CONDITION/WEATHER
TMP    - TEMPERATURE IN FAHRENHEIT
DP     - DEW POINT IN FAHRENHEIT
RH     - RELATIVE HUMIDITY IN PERCENT
WIND   - DIRECTION AND SPEED IN MILES PER HOUR (MPH)
VRB    - VARIABLE WIND DIRECTION
PRES   - MEAN SEA LEVEL PRESSURE IN INCHES OF MERCURY
         F - FALLING PRESSURE   R - RISING PRESSURE
         S - STEADY PRESSURE
VSB    - VISIBILITY IN MILES
HX     - HEAT INDEX IN FAHRENHEIT
WCI    - WIND CHILL INDEX IN FAHRENHEIT
TC     - TEMPERATURE IN CELSIUS WHICH IS ALSO KNOWN AS
         TEMPERATURE IN CENTIGRADE
AFB    - AIR FORCE BASE
         LUKE AFB IS LUKE AIR FORCE BASE
         DAVIS-MONTHAN IS DAVIS-MONTHAN AIR FORCE BASE
NAS    - NAVAL AIR STATION
         EL CENTRO NAS IS EL CENTRO NAVAL AIR STATION
N/A    - NOT AVAILABLE





USA.gov is the U.S. government's official web portal to all federal, state and local government web resources and services.